Location: Killam
(52.7910°N, 111.8608°W)
Time: 21:30:32
(UTC+00:00)

A-11 Canister half - Pass Details

Date: 25 February 2026
Orbit: 1525 x 1683 km, 47.3° (Epoch: 5 March)

Event Time Altitude Azimuth Distance (km) Brightness Sun altitude
Rises 02:54:26 0° 279° (W) 4,698 13.3 -18.4°
Reaches altitude 10° 02:57:36 10° 274° (W) 3,704 12.3 -18.9°
Maximum altitude 03:06:22 48° 204° (SSW) 1,908 9.5 -20.2°
Enters shadow 03:12:28 21° 141° (SE) 2,927 10.0 -21.1°
Drops below altitude 10° 03:15:08 10° 134° (SE) 3,705 - -21.4°
Sets 03:18:19 0° 129° (SE) 4,700 - -21.9°
